Congonhas Airport

SBSP · São Paulo, Brazilië

METAR historie SBSP · Aeroporto de Congonhas/São Paulo

Hieronder zie je METAR's van de afgelopen dagen. Kies een jaar om door oudere METAR's te bladeren, vanaf het jaar 2007.

23 februari 2024

Tijd Code Weer Temp. Zicht Plafond Wind METAR/SPECI
00:00
V
23 °C 10 km+ - 060° 060° 4 kt METAR SBSP 230300Z AUTO 06004KT 020V080 9999 NCD 23/19 Q1015

22 februari 2024

Tijd Code Weer Temp. Zicht Plafond Wind METAR/SPECI
23:06
V
23 °C 10 km+ - 060° 060° 5 kt METAR SBSP 230206Z 06005KT 030V100 9999 FEW010 23/20 Q1016
23:00
V
23 °C 10 km+ - 070° 070° 4 kt METAR SBSP 230200Z 07004KT 040V130 9999 FEW010 SCT100 23/20 Q1016
22:00
M
22 °C 8 km 1.100 ft 130° 130° 5 kt METAR SBSP 230100Z 13005KT 050V150 8000 FEW007 BKN011 22/21 Q1016

21 februari 2024

Tijd Code Weer Temp. Zicht Plafond Wind METAR/SPECI
21:00
I
22 °C 4 km 1.300 ft 140° 140° 6 kt METAR SBSP 230000Z 14006KT 110V170 4000 BR SCT007 OVC013 22/21 Q1016

22 februari 2024

Tijd Code Weer Temp. Zicht Plafond Wind METAR/SPECI
20:00
I
22 °C 5 km 800 ft 120° 120° 6 kt METAR SBSP 222300Z 12006KT 5000 BR SCT005 OVC008 22/20 Q1015
19:00
I
22 °C 5 km 800 ft 140° 140° 9 kt METAR SBSP 222200Z 14009KT 5000 BR FEW005 OVC008 22/20 Q1014
18:00
M
22 °C 8 km 1.100 ft 150° 150° 12 kt METAR SBSP 222100Z 15012KT 8000 FEW005 OVC011 22/21 Q1013
17:00
M
24 °C 10 km+ 1.100 ft 150° 150° 12 kt METAR SBSP 222000Z 15012KT 9999 SCT009 BKN011 24/21 Q1012
16:00
V
25 °C 10 km+ - 160° 160° 13 kt METAR SBSP 221900Z 16013KT 9999 SCT013 SCT030 FEW046TCU 25/21 Q1012
15:00
V
30 °C 10 km+ - 290° 290° 8 kt METAR SBSP 221800Z 29008KT 200V340 9999 SCT036 FEW050TCU 30/16 Q1012
14:00
V
29 °C 10 km+ - 310° 310° 6 kt METAR SBSP 221700Z 31006KT 240V020 9999 SCT036 29/18 Q1013
13:00
V
28 °C 10 km+ 3.600 ft 290° 290° 6 kt METAR SBSP 221600Z 29006KT 200V360 9999 BKN036 28/19 Q1013
12:00
V
28 °C 10 km+ 3.600 ft 020° 020° 7 kt METAR SBSP 221500Z 02007KT 330V060 9999 BKN036 28/18 Q1014
11:00
M
27 °C 10 km+ 2.600 ft 020° 020° 7 kt METAR SBSP 221400Z 02007KT 330V060 9999 BKN026 27/19 Q1015
10:00
V
25 °C 10 km+ - 020° 020° 5 kt METAR SBSP 221300Z 02005KT 320V070 9999 SCT019 25/19 Q1015
09:00
V
24 °C 10 km+ - Var Var 4 kt METAR SBSP 221200Z VRB04KT 9999 SCT009 24/19 Q1014
08:40
V
23 °C 10 km+ - 070° 070° 4 kt METAR SBSP 221140Z 07004KT 9999 SCT009 23/19 Q1014
08:00
I
21 °C 10 km+ 900 ft 080° 080° 4 kt METAR SBSP 221100Z 08004KT 9999 SCT007 BKN009 21/19 Q1014
07:00
I
21 °C 9 km 800 ft 070° 070° 3 kt METAR SBSP 221000Z 07003KT 9000 SCT007 BKN008 21/19 Q1013
06:00
I
20 °C 9 km 700 ft 060° 060° 6 kt METAR SBSP 220900Z 06006KT 020V110 9000 SCT005 BKN007 20/19 Q1013
05:37
I
20 °C 10 km+ 700 ft 070° 070° 4 kt METAR SBSP 220837Z AUTO 07004KT 030V170 9999 FEW005 BKN007 20/19 Q1012
05:00
V
20 °C 10 km+ - 070° 070° 4 kt METAR SBSP 220800Z AUTO 07004KT 030V120 9999 FEW005 20/19 Q1012
04:00
V
21 °C 10 km+ - 050° 050° 5 kt METAR SBSP 220700Z AUTO 05005KT 010V120 9999 NCD 21/19 Q1011
03:00
V
21 °C 10 km+ - 060° 060° 6 kt METAR SBSP 220600Z AUTO 06006KT 030V090 9999 NCD 21/19 Q1011
02:00
V
21 °C 10 km+ - 080° 080° 3 kt METAR SBSP 220500Z AUTO 08003KT 010V120 9999 FEW009 21/19 Q1012
01:00
V
21 °C 10 km+ - 060° 060° 3 kt METAR SBSP 220400Z AUTO 06003KT 020V090 9999 FEW012 21/19 Q1013
00:11
V
21 °C 10 km+ - 080° 080° 7 kt METAR SBSP 220311Z AUTO 08007KT 040V110 9999 -RA SCT008 21/19 Q1013
00:00
I
21 °C 10 km+ 900 ft 070° 070° 8 kt METAR SBSP 220300Z AUTO 07008KT 040V110 9999 -RA SCT007 BKN009 21/19 Q1013 RERA

21 februari 2024

Tijd Code Weer Temp. Zicht Plafond Wind METAR/SPECI
23:01
I
21 °C 10 km+ 700 ft 080° 080° 5 kt METAR SBSP 220201Z 08005KT 040V110 9999 SCT005 BKN007 21/19 Q1014
23:00
I
21 °C 7 km 600 ft 080° 080° 4 kt METAR SBSP 220200Z 08004KT 010V160 7000 BKN006 21/19 Q1014
22:00
I
21 °C 8 km 600 ft 090° 090° 5 kt METAR SBSP 220100Z 09005KT 050V120 8000 -RA BKN006 21/19 Q1014
20:00
I
21 °C 6 km 700 ft 110° 110° 3 kt METAR SBSP 212300Z 11003KT 070V140 6000 BKN007 21/20 Q1013
19:00
I
20 °C 5 km 600 ft 120° 120° 8 kt METAR SBSP 212200Z 12008KT 5000 -RA BKN006 20/19 Q1012 RERA
18:00
I
21 °C 3,5 km 600 ft 180° 180° 7 kt METAR SBSP 212100Z 18007KT 130V240 3500 RA BKN006 21/20 Q1011
17:40
I
21 °C 3 km 600 ft 130° 130° 7 kt METAR SBSP 212040Z 13007KT 3000 RA BKN006 21/20 Q1012
17:20
I
21 °C 4 km 600 ft 190° 190° 9 kt METAR SBSP 212020Z 19009KT 160V220 4000 -RA BKN006 21/20 Q1011
17:00
I
21 °C 7 km 600 ft 160° 160° 13 kt METAR SBSP 212000Z 16013KT 7000 -DZ OVC006 21/20 Q1011
16:00
I
22 °C 9 km 700 ft 170° 170° 10 kt METAR SBSP 211900Z 17010KT 9000 -RA BKN007 22/20 Q1011
15:00
I
23 °C 7 km 700 ft 170° 170° 10 kt METAR SBSP 211800Z 17010KT 7000 BKN007 23/21 Q1011 RETS
14:00
V
24 °C 10 km+ - 140° 140° 12 kt METAR SBSP 211700Z 14012KT 110V170 9999 -TSRA SCT015 FEW020CB 24/20 Q1011
13:00
V
26 °C 10 km+ - 170° 170° 8 kt METAR SBSP 211600Z 17008KT 9999 FEW020 SCT030 FEW030TCU 26/19 Q1012
12:00
V
27 °C 10 km+ - 330° 330° 2 kt METAR SBSP 211500Z 33002KT 9999 SCT020 SCT030 27/19 Q1012
11:00
V
25 °C 10 km+ - 160° 160° 2 kt METAR SBSP 211400Z 16002KT 9999 SCT015 SCT030 25/18 Q1013
10:00
V
24 °C 10 km+ - 030° 030° 3 kt METAR SBSP 211300Z 03003KT 9999 SCT015 SCT030 24/18 Q1013
09:00
V
22 °C 10 km+ - 120° 120° 2 kt METAR SBSP 211200Z 12002KT 9999 FEW010 SCT030 22/18 Q1013
08:00
M
21 °C 10 km+ 1.000 ft 120° 120° 3 kt METAR SBSP 211100Z 12003KT 9999 BKN010 21/18 Q1013
07:00
V
20 °C 10 km+ - 150° 150° 4 kt METAR SBSP 211000Z 15004KT 9999 SCT014 20/18 Q1012
06:25
V
20 °C 10 km+ - 150° 150° 4 kt METAR SBSP 210925Z 15004KT 9999 FEW007 SCT014 20/18 Q1012
06:00
I
20 °C 10 km+ 900 ft 150° 150° 4 kt METAR SBSP 210900Z 15004KT 9999 BKN009 OVC012 20/18 Q1012
05:24
M
20 °C 10 km+ 1.700 ft 140° 140° 4 kt METAR SBSP 210824Z AUTO 14004KT 9999 FEW007 OVC017 20/18 Q1011
05:07
M
20 °C 10 km+ 1.000 ft Var Var 3 kt METAR SBSP 210807Z AUTO VRB03KT 9999 FEW007 BKN010 OVC017 20/18 Q1011
05:00
I
20 °C 10 km+ 900 ft 110° 110° 5 kt METAR SBSP 210800Z AUTO 11005KT 080V150 9999 FEW007 BKN009 BKN017 20/18 Q1011
04:37
I
20 °C 10 km+ 800 ft 130° 130° 5 kt METAR SBSP 210737Z AUTO 13005KT 100V160 9999 FEW006 BKN008 BKN013 20/18 Q1011
04:11
M
20 °C 10 km+ 1.000 ft 130° 130° 5 kt METAR SBSP 210711Z AUTO 13005KT 9999 SCT007 OVC010 20/18 Q1011
04:00
I
20 °C 10 km+ 900 ft 130° 130° 4 kt METAR SBSP 210700Z AUTO 13004KT 9999 SCT007 BKN009 OVC012 20/18 Q1011
03:44
M
20 °C 10 km+ 1.000 ft 120° 120° 4 kt METAR SBSP 210644Z AUTO 12004KT 090V150 9999 SCT007 BKN010 BKN012 20/18 Q1011
03:21
M
19 °C 10 km+ 1.300 ft 140° 140° 4 kt METAR SBSP 210621Z AUTO 14004KT 9999 FEW007 SCT011 BKN013 19/18 Q1010
03:00
V
19 °C 10 km+ - 120° 120° 5 kt METAR SBSP 210600Z AUTO 12005KT 090V150 9999 FEW006 SCT008 19/18 Q1010
02:23
I
20 °C 10 km+ 800 ft 160° 160° 4 kt METAR SBSP 210523Z AUTO 16004KT 9999 SCT005 BKN008 BKN010 20/18 Q1011
02:08
I
20 °C 10 km+ 600 ft 140° 140° 4 kt METAR SBSP 210508Z AUTO 14004KT 110V170 9999 BKN006 BKN009 20/18 Q1011
02:00
I
20 °C 10 km+ 900 ft Var Var 2 kt METAR SBSP 210500Z AUTO VRB02KT 9999 FEW005 SCT007 BKN009 20/18 Q1011
01:37
I
19 °C 10 km+ 700 ft Var Var 2 kt METAR SBSP 210437Z AUTO VRB02KT 9999 FEW005 BKN007 19/18 Q1011
01:25
M
19 °C 10 km+ 1.000 ft 150° 150° 3 kt METAR SBSP 210425Z AUTO 15003KT 110V220 9999 FEW005 BKN010 19/18 Q1011
01:16
V
19 °C 10 km+ - 110° 110° 4 kt METAR SBSP 210416Z AUTO 11004KT 080V150 9999 SCT011 SCT014 19/18 Q1011
01:03
M
19 °C 10 km+ 1.100 ft 100° 100° 5 kt METAR SBSP 210403Z AUTO 10005KT 9999 FEW005 BKN011 BKN014 19/18 Q1011
01:00
M
19 °C 10 km+ 1.300 ft 130° 130° 5 kt METAR SBSP 210400Z AUTO 13005KT 9999 FEW003 BKN013 19/18 Q1011
00:00
L
19 °C 6 km 300 ft 140° 140° 3 kt METAR SBSP 210300Z AUTO 14003KT 6000 OVC003 19/18 Q1013

20 februari 2024

Tijd Code Weer Temp. Zicht Plafond Wind METAR/SPECI
23:22
L
19 °C 8 km 400 ft Var Var 2 kt METAR SBSP 210222Z AUTO VRB02KT 8000 OVC004 19/18 Q1013
23:02
I
19 °C 9 km 500 ft 160° 160° 3 kt METAR SBSP 210202Z 16003KT 9000 SCT003 OVC005 19/18 Q1014
23:00
I
19 °C 8 km 700 ft 150° 150° 4 kt METAR SBSP 210200Z 15004KT 8000 OVC007 19/18 Q1014
22:00
I
19 °C 8 km 700 ft 120° 120° 5 kt METAR SBSP 210100Z 12005KT 8000 OVC007 19/18 Q1013
21:00
I
19 °C 6 km 800 ft 150° 150° 6 kt METAR SBSP 210000Z 15006KT 6000 OVC008 19/18 Q1013
20:40
I
19 °C 6 km 800 ft 140° 140° 5 kt METAR SBSP 202340Z 14005KT 6000 OVC008 19/18 Q1013
20:00
I
20 °C 3 km 500 ft 130° 130° 8 kt METAR SBSP 202300Z 13008KT 3000 BR OVC005 20/18 Q1012
19:20
L
20 °C 3 km 300 ft 140° 140° 7 kt METAR SBSP 202220Z 14007KT 3000 BR OVC003 20/18 Q1012
19:00
I
20 °C 10 km+ 700 ft 140° 140° 5 kt METAR SBSP 202200Z 14005KT 9999 OVC007 20/18 Q1012
18:00
I
20 °C 10 km+ 700 ft 150° 150° 9 kt METAR SBSP 202100Z 15009KT 9999 BKN007 20/18 Q1011
17:00
M
21 °C 10 km+ 1.000 ft 160° 160° 10 kt METAR SBSP 202000Z 16010KT 9999 BKN010 21/19 Q1010
16:00
M
21 °C 10 km+ 1.000 ft 190° 190° 12 kt METAR SBSP 201900Z 19012KT 9999 BKN010 21/19 Q1010
15:00
V
21 °C 10 km+ - 200° 200° 12 kt METAR SBSP 201800Z 20012KT 9999 SCT007 FEW040TCU 21/19 Q1010 RETS
14:35
M
21 °C 8 km 1.100 ft 160° 160° 11 kt METAR SBSP 201735Z 16011KT 8000 1500NE -TSRA SCT007 BKN011 FEW040CB 21/19 Q1010 RERA
14:00
I
22 °C 4,5 km 1.100 ft 200° 200° 11 kt METAR SBSP 201700Z 20011KT 4500 1200N TSRA SCT007 BKN011 FEW040CB 22/19 Q1010
13:00
M
24 °C 10 km+ 2.300 ft 210° 210° 9 kt METAR SBSP 201600Z 21009KT 180V240 9999 SCT008 BKN023 24/21 Q1010
12:00
M
25 °C 10 km+ 2.300 ft 100° 100° 5 kt METAR SBSP 201500Z 10005KT 060V140 9999 SCT019 BKN023 25/21 Q1011
11:00
M
24 °C 10 km+ 2.300 ft 130° 130° 6 kt METAR SBSP 201400Z 13006KT 9999 BKN023 24/20 Q1012 RERA
10:23
M
22 °C 8 km 2.300 ft 120° 120° 3 kt METAR SBSP 201323Z 12003KT 090V170 8000 BKN023 22/20 Q1012 RERA
10:05
I
23 °C 3,5 km 1.900 ft 070° 070° 6 kt METAR SBSP 201305Z 07006KT 010V130 3500 RA BR FEW015 BKN019 23/19 Q1012
10:00
M
24 °C 6 km 1.900 ft 090° 090° 5 kt METAR SBSP 201300Z 09005KT 010V130 6000 -RA FEW015 BKN019 24/19 Q1012
09:00
M
23 °C 10 km+ 1.500 ft 110° 110° 7 kt METAR SBSP 201200Z 11007KT 9999 BKN015 23/19 Q1012
08:00
M
22 °C 10 km+ 1.100 ft 080° 080° 6 kt METAR SBSP 201100Z 08006KT 050V110 9999 FEW008 BKN011 22/19 Q1012
07:00
M
22 °C 8 km 1.100 ft 090° 090° 4 kt METAR SBSP 201000Z 09004KT 8000 FEW008 BKN011 22/19 Q1011
06:00
M
21 °C 10 km+ 1.100 ft 110° 110° 3 kt METAR SBSP 200900Z 11003KT 9999 FEW008 BKN011 21/19 Q1011
05:42
M
21 °C 10 km+ 1.500 ft 130° 130° 4 kt METAR SBSP 200842Z AUTO 13004KT 090V160 9999 FEW009 SCT011 OVC015 21/19 Q1010
05:32
M
21 °C 10 km+ 1.100 ft 130° 130° 4 kt METAR SBSP 200832Z AUTO 13004KT 080V190 9999 SCT008 BKN011 OVC015 21/19 Q1010
05:21
I
21 °C 10 km+ 900 ft 140° 140° 4 kt METAR SBSP 200821Z AUTO 14004KT 9999 BKN009 OVC013 21/19 Q1010
05:02
M
21 °C 10 km+ 1.000 ft Var Var 2 kt METAR SBSP 200802Z AUTO VRB02KT 9999 SCT008 BKN010 BKN012 21/19 Q1010
05:00
M
21 °C 10 km+ 1.100 ft 110° 110° 4 kt METAR SBSP 200800Z AUTO 11004KT 060V160 9999 SCT008 BKN011 21/19 Q1010
04:34
M
21 °C 10 km+ 1.000 ft 100° 100° 4 kt METAR SBSP 200734Z AUTO 10004KT 060V140 9999 FEW008 BKN010 21/19 Q1010
04:00
V
21 °C 10 km+ - 120° 120° 5 kt METAR SBSP 200700Z AUTO 12005KT 090V150 9999 FEW010 21/19 Q1010
03:00
M
21 °C 10 km+ 1.700 ft 080° 080° 4 kt METAR SBSP 200600Z AUTO 08004KT 050V110 9999 SCT011 BKN017 21/18 Q1010